Year,Month,Day,Hour,Minute,Value (Times are PST for barometer in hPa)
2022,05,23,00,00,958.42
2022,05,23,00,01,958.42
2022,05,23,00,02,958.42
2022,05,23,00,03,958.42
2022,05,23,00,04,958.42
2022,05,23,00,05,958.42
2022,05,23,00,06,958.42
2022,05,23,00,07,958.42
2022,05,23,00,08,958.42
2022,05,23,00,09,958.42
2022,05,23,00,10,958.42
2022,05,23,00,11,958.42
2022,05,23,00,12,958.42
2022,05,23,00,13,958.42
2022,05,23,00,14,958.42
2022,05,23,00,15,958.42
2022,05,23,00,16,958.42
2022,05,23,00,17,960.69
2022,05,23,00,18,960.82
2022,05,23,00,19,960.82
2022,05,23,00,20,960.82
2022,05,23,00,21,960.82
2022,05,23,00,22,960.82
2022,05,23,00,23,960.82
2022,05,23,00,24,960.82
2022,05,23,00,25,960.82
2022,05,23,00,26,960.82
2022,05,23,00,27,960.82
2022,05,23,00,28,960.82
2022,05,23,00,29,960.82
2022,05,23,00,30,960.82
2022,05,23,00,31,960.82
2022,05,23,00,32,955.85
2022,05,23,00,33,955.30
2022,05,23,00,34,955.30
2022,05,23,00,35,955.30
2022,05,23,00,36,955.30
2022,05,23,00,37,955.30
2022,05,23,00,38,955.30
2022,05,23,00,39,955.30
2022,05,23,00,40,955.30
2022,05,23,00,41,955.30
2022,05,23,00,42,955.30
2022,05,23,00,43,955.30
2022,05,23,00,44,955.30
2022,05,23,00,45,955.30
2022,05,23,00,46,955.30
2022,05,23,00,47,955.30
2022,05,23,00,48,955.30
2022,05,23,00,49,955.30
2022,05,23,00,50,955.30
2022,05,23,00,51,955.30
2022,05,23,00,52,955.30
2022,05,23,00,53,955.30
2022,05,23,00,54,955.30
2022,05,23,00,55,955.30
2022,05,23,00,56,955.30
2022,05,23,00,57,955.30
2022,05,23,00,58,955.30
2022,05,23,00,59,955.30
2022,05,23,01,00,955.30
2022,05,23,01,01,955.30
2022,05,23,01,02,955.30
2022,05,23,01,03,955.30
2022,05,23,01,04,955.30
2022,05,23,01,05,955.30
2022,05,23,01,06,955.30
2022,05,23,01,07,955.30
2022,05,23,01,08,955.30
2022,05,23,01,09,955.30
2022,05,23,01,10,955.30
2022,05,23,01,11,955.30
2022,05,23,01,12,955.30
2022,05,23,01,13,955.30
2022,05,23,01,14,955.30
2022,05,23,01,15,955.30
2022,05,23,01,16,955.30
2022,05,23,01,17,955.30
2022,05,23,01,18,955.30
2022,05,23,01,19,955.30
2022,05,23,01,20,958.58
2022,05,23,01,21,958.96
2022,05,23,01,22,958.96
2022,05,23,01,23,958.96
2022,05,23,01,24,958.96
2022,05,23,01,25,958.96
2022,05,23,01,26,957.74
2022,05,23,01,27,957.67
2022,05,23,01,28,957.67
2022,05,23,01,29,957.67
2022,05,23,01,30,958.13
2022,05,23,01,31,958.18
2022,05,23,01,32,958.18
2022,05,23,01,33,958.18
2022,05,23,01,34,958.18
2022,05,23,01,35,958.18
2022,05,23,01,36,958.18
2022,05,23,01,37,958.18
2022,05,23,01,38,958.18
2022,05,23,01,39,958.18
2022,05,23,01,40,958.18
2022,05,23,01,41,958.18
2022,05,23,01,42,971.39
2022,05,23,01,43,972.94
2022,05,23,01,44,972.94
2022,05,23,01,45,972.94
2022,05,23,01,46,972.94
2022,05,23,01,47,972.94
2022,05,23,01,48,972.94
2022,05,23,01,49,972.94
2022,05,23,01,50,972.94
2022,05,23,01,51,972.94
2022,05,23,01,52,972.94
2022,05,23,01,53,972.94
2022,05,23,01,54,972.94
2022,05,23,01,55,972.94
2022,05,23,01,56,972.94
2022,05,23,01,57,972.94
2022,05,23,01,58,972.94
2022,05,23,01,59,972.94
2022,05,23,02,00,972.94
2022,05,23,02,01,972.94
2022,05,23,02,02,972.94
2022,05,23,02,03,972.94
2022,05,23,02,04,978.19
2022,05,23,02,05,978.77
2022,05,23,02,06,978.77
2022,05,23,02,07,978.77
2022,05,23,02,08,982.18
2022,05,23,02,09,982.56
2022,05,23,02,10,982.56
2022,05,23,02,11,982.56
2022,05,23,02,12,982.56
2022,05,23,02,13,982.56
2022,05,23,02,14,982.56
2022,05,23,02,15,982.56
2022,05,23,02,16,982.56
2022,05,23,02,17,982.56
2022,05,23,02,18,982.56
2022,05,23,02,19,982.56
2022,05,23,02,20,982.56
2022,05,23,02,21,982.56
2022,05,23,02,22,982.56
2022,05,23,02,23,982.56
2022,05,23,02,24,982.56
2022,05,23,02,25,982.56
2022,05,23,02,26,982.56
2022,05,23,02,27,982.56
2022,05,23,02,28,982.56
2022,05,23,02,29,982.56
2022,05,23,02,30,982.56
2022,05,23,02,31,982.56
2022,05,23,02,32,982.56
2022,05,23,02,33,982.56
2022,05,23,02,34,982.56
2022,05,23,02,35,982.56
2022,05,23,02,36,982.56
2022,05,23,02,37,982.56
2022,05,23,02,38,982.56
2022,05,23,02,39,982.56
2022,05,23,02,40,982.56
2022,05,23,02,41,982.56
2022,05,23,02,42,982.56
2022,05,23,02,43,982.56
2022,05,23,02,44,982.56
2022,05,23,02,45,982.56
2022,05,23,02,46,982.56
2022,05,23,02,47,982.56
2022,05,23,02,48,982.56
2022,05,23,02,49,982.56
2022,05,23,02,50,982.56
2022,05,23,02,51,982.56
2022,05,23,02,52,982.56
2022,05,23,02,53,982.56
2022,05,23,02,54,982.56
2022,05,23,02,55,982.56
2022,05,23,02,56,982.56
2022,05,23,02,57,982.56
2022,05,23,02,58,982.56
2022,05,23,02,59,982.56
2022,05,23,03,00,982.56
2022,05,23,03,01,982.56
2022,05,23,03,02,982.56
2022,05,23,03,06,982.56
2022,05,23,03,07,982.56
2022,05,23,03,08,982.56
2022,05,23,03,09,982.56
2022,05,23,03,10,982.56
2022,05,23,03,11,982.56
2022,05,23,03,12,982.56
2022,05,23,03,13,982.56
2022,05,23,03,14,982.56
2022,05,23,03,15,982.56
2022,05,23,03,16,982.56
2022,05,23,03,17,982.56
2022,05,23,03,18,982.56
2022,05,23,03,19,982.14
2022,05,23,03,20,974.60
2022,05,23,03,21,974.60
2022,05,23,03,22,974.60
2022,05,23,03,23,974.60
2022,05,23,03,24,974.60
2022,05,23,03,25,974.60
2022,05,23,03,26,974.60
2022,05,23,03,27,974.60
2022,05,23,03,28,974.60
2022,05,23,03,29,974.60
2022,05,23,03,30,974.60
2022,05,23,03,31,974.60
2022,05,23,03,32,974.60
2022,05,23,03,33,974.60
2022,05,23,03,34,974.60
2022,05,23,03,35,974.60
2022,05,23,03,36,974.60
2022,05,23,03,37,974.60
2022,05,23,03,38,974.60
2022,05,23,03,39,974.60
2022,05,23,03,40,974.60
2022,05,23,03,41,974.60
2022,05,23,03,42,974.60
2022,05,23,03,43,975.25
2022,05,23,03,44,987.64
2022,05,23,03,45,987.64
2022,05,23,03,46,987.64
2022,05,23,03,47,987.64
2022,05,23,03,48,987.26
2022,05,23,03,49,979.99
2022,05,23,03,50,979.99
2022,05,23,03,51,979.99
2022,05,23,03,52,980.68
2022,05,23,03,53,993.19
2022,05,23,03,54,993.19
2022,05,23,03,55,993.19
2022,05,23,03,56,993.19
2022,05,23,03,57,993.19
2022,05,23,03,58,993.19
2022,05,23,03,59,993.19
2022,05,23,04,00,993.19
2022,05,23,04,01,992.93
2022,05,23,04,02,988.05
2022,05,23,04,03,988.05
2022,05,23,04,04,988.05
2022,05,23,04,05,988.05
2022,05,23,04,06,988.05
2022,05,23,04,07,988.05
2022,05,23,04,08,988.05
2022,05,23,04,09,988.05
2022,05,23,04,10,988.05
2022,05,23,04,11,988.05
2022,05,23,04,12,988.05
2022,05,23,04,13,988.05
2022,05,23,04,14,988.05
2022,05,23,04,15,988.05
2022,05,23,04,16,988.05
2022,05,23,04,17,988.05
2022,05,23,04,18,988.05
2022,05,23,04,19,988.05
2022,05,23,04,20,988.05
2022,05,23,04,21,988.05
2022,05,23,04,22,988.05
2022,05,23,04,23,988.16
2022,05,23,04,24,990.04
2022,05,23,04,25,990.04
2022,05,23,04,26,990.04
2022,05,23,04,27,990.04
2022,05,23,04,28,990.21
2022,05,23,04,29,993.36
2022,05,23,04,30,993.36
2022,05,23,04,31,993.36
2022,05,23,04,32,993.43
2022,05,23,04,33,994.76
2022,05,23,04,34,994.85
2022,05,23,04,35,994.85
2022,05,23,04,36,994.85
2022,05,23,04,37,994.85
2022,05,23,04,38,994.85
2022,05,23,04,39,996.61
2022,05,23,04,40,996.11
2022,05,23,04,41,996.11
2022,05,23,04,42,996.11
2022,05,23,04,43,996.11
2022,05,23,04,44,996.11
2022,05,23,04,45,996.11
2022,05,23,04,46,996.11
2022,05,23,04,47,996.11
2022,05,23,04,48,996.11
2022,05,23,04,49,996.11
2022,05,23,04,50,996.11
2022,05,23,04,51,996.11
2022,05,23,04,52,996.11
2022,05,23,04,53,996.11
2022,05,23,04,54,996.11
2022,05,23,04,55,996.11
2022,05,23,04,56,996.11
2022,05,23,04,57,996.11
2022,05,23,04,58,996.11
2022,05,23,04,59,996.11
2022,05,23,05,00,996.11
2022,05,23,05,01,996.11
2022,05,23,05,02,996.11
2022,05,23,05,03,996.11
2022,05,23,05,04,996.11
2022,05,23,05,05,995.88
2022,05,23,05,06,991.39
2022,05,23,05,07,991.26
2022,05,23,05,08,991.81
2022,05,23,05,09,991.81
2022,05,23,05,10,991.81
2022,05,23,05,11,991.60
2022,05,23,05,12,987.67
2022,05,23,05,13,987.67
2022,05,23,05,14,990.26
2022,05,23,05,15,989.84
2022,05,23,05,16,989.84
2022,05,23,05,17,989.84
2022,05,23,05,18,989.84
2022,05,23,05,19,989.90
2022,05,23,05,20,990.96
2022,05,23,05,21,990.96
2022,05,23,05,22,990.96
2022,05,23,05,23,990.96
2022,05,23,05,24,990.96
2022,05,23,05,25,990.69
2022,05,23,05,26,985.64
2022,05,23,05,27,985.64
2022,05,23,05,28,985.64
2022,05,23,05,29,985.49
2022,05,23,05,30,982.73
2022,05,23,05,31,982.73
2022,05,23,05,32,982.73
2022,05,23,05,33,982.73
2022,05,23,05,34,982.73
2022,05,23,05,35,982.73
2022,05,23,05,36,982.73
2022,05,23,05,37,982.73
2022,05,23,05,38,982.73
2022,05,23,05,39,982.92
2022,05,23,05,40,986.46
2022,05,23,05,41,986.46
2022,05,23,05,42,986.46
2022,05,23,05,43,986.46
2022,05,23,05,44,986.46
2022,05,23,05,45,986.46
2022,05,23,05,46,982.53
2022,05,23,05,47,982.53
2022,05,23,05,48,982.53
2022,05,23,05,49,982.53
2022,05,23,05,50,982.53
2022,05,23,05,51,982.53
2022,05,23,05,52,988.11
2022,05,23,05,53,988.02
2022,05,23,05,54,987.40
2022,05,23,05,55,987.40
2022,05,23,05,56,988.69
2022,05,23,05,57,988.69
2022,05,23,05,58,988.69
2022,05,23,05,59,988.69
2022,05,23,06,00,988.69
2022,05,23,06,01,988.69
2022,05,23,06,02,988.69
2022,05,23,06,03,988.69
2022,05,23,06,04,988.69
2022,05,23,06,05,988.69
2022,05,23,06,06,988.81
2022,05,23,06,07,991.03
2022,05,23,06,08,991.03
2022,05,23,06,09,991.03
2022,05,23,06,10,986.73
2022,05,23,06,11,986.73
2022,05,23,06,12,986.73
2022,05,23,06,13,986.73
2022,05,23,06,14,986.73
2022,05,23,06,15,986.73
2022,05,23,06,16,986.53
2022,05,23,06,17,982.63
2022,05,23,06,18,982.63
2022,05,23,06,19,982.63
2022,05,23,06,20,982.63
2022,05,23,06,21,982.63
2022,05,23,06,22,982.63
2022,05,23,06,23,979.79
2022,05,23,06,24,980.09
2022,05,23,06,25,980.09
2022,05,23,06,26,980.09
2022,05,23,06,27,980.09
2022,05,23,06,28,980.09
2022,05,23,06,29,980.09
2022,05,23,06,30,980.09
2022,05,23,06,31,986.59
2022,05,23,06,32,986.59
2022,05,23,06,33,996.28
2022,05,23,06,34,996.28
2022,05,23,06,35,996.28
2022,05,23,06,36,996.28
2022,05,23,06,37,996.28
2022,05,23,06,38,996.28
2022,05,23,06,39,996.28
2022,05,23,06,40,996.28
2022,05,23,06,41,996.28
2022,05,23,06,42,996.28
2022,05,23,06,43,996.28
2022,05,23,06,44,996.28
2022,05,23,06,45,996.28
2022,05,23,06,46,996.28
2022,05,23,06,47,996.28
2022,05,23,06,48,996.28
2022,05,23,06,49,980.16
2022,05,23,06,50,980.50
2022,05,23,06,51,980.50
2022,05,23,06,52,980.50
2022,05,23,06,53,980.50
2022,05,23,06,54,980.50
2022,05,23,06,55,980.50
2022,05,23,06,56,980.50
2022,05,23,06,57,980.50
2022,05,23,06,58,980.50
2022,05,23,06,59,980.50
2022,05,23,07,00,980.50
2022,05,23,07,01,980.50
2022,05,23,07,02,967.36
2022,05,23,07,03,967.36
2022,05,23,07,04,967.36
2022,05,23,07,05,967.36
2022,05,23,07,06,967.36
2022,05,23,07,07,967.36
2022,05,23,07,08,967.36
2022,05,23,07,09,967.36
2022,05,23,07,10,967.36
2022,05,23,07,11,967.36
2022,05,23,07,12,967.36
2022,05,23,07,13,967.36
2022,05,23,07,14,967.36
2022,05,23,07,15,967.36
2022,05,23,07,16,967.36
2022,05,23,07,17,967.36
2022,05,23,07,18,967.36
2022,05,23,07,19,967.36
2022,05,23,07,20,967.36
2022,05,23,07,21,963.13
2022,05,23,07,22,963.39
2022,05,23,07,23,963.39
2022,05,23,07,24,963.39
2022,05,23,07,25,954.25
2022,05,23,07,26,954.25
2022,05,23,07,27,954.25
2022,05,23,07,28,954.25
2022,05,23,07,29,954.25
2022,05,23,07,30,954.25
2022,05,23,07,31,954.25
2022,05,23,07,32,954.25
2022,05,23,07,33,954.25
2022,05,23,07,34,954.25
2022,05,23,07,35,954.25
2022,05,23,07,36,954.25
2022,05,23,07,37,954.25
2022,05,23,07,38,954.25
2022,05,23,07,39,954.25
2022,05,23,07,40,960.35
2022,05,23,07,41,960.35
2022,05,23,07,42,960.35
2022,05,23,07,43,960.35
2022,05,23,07,44,960.35
2022,05,23,07,45,960.35
2022,05,23,07,46,960.35
2022,05,23,07,47,960.35
2022,05,23,07,48,960.35
2022,05,23,07,49,960.35
2022,05,23,07,50,960.35
2022,05,23,07,51,960.35
2022,05,23,07,52,960.35
2022,05,23,07,53,960.35
2022,05,23,07,54,960.35
2022,05,23,07,55,960.35
2022,05,23,07,56,960.35
2022,05,23,07,57,960.35
2022,05,23,07,58,960.35
2022,05,23,07,59,960.35
2022,05,23,08,00,960.35
2022,05,23,08,01,960.35
2022,05,23,08,02,960.35
2022,05,23,08,03,960.35
2022,05,23,08,04,960.35
2022,05,23,08,05,960.35
2022,05,23,08,06,960.35
2022,05,23,08,07,960.35
2022,05,23,08,08,960.35
2022,05,23,08,09,960.35
2022,05,23,08,10,960.35
2022,05,23,08,11,960.35
2022,05,23,08,12,960.35
2022,05,23,08,13,960.35
2022,05,23,08,14,960.35
2022,05,23,08,15,960.35
2022,05,23,08,16,960.35
2022,05,23,08,17,960.35
2022,05,23,08,18,960.35
2022,05,23,08,19,960.35
2022,05,23,08,20,960.35
2022,05,23,08,21,960.35
2022,05,23,08,22,960.35
2022,05,23,08,23,960.35
2022,05,23,08,24,960.35
2022,05,23,08,25,960.35
2022,05,23,08,26,960.35
2022,05,23,08,27,960.35
2022,05,23,08,28,960.35
2022,05,23,08,29,960.35
2022,05,23,08,30,960.35
2022,05,23,08,31,960.35
2022,05,23,08,32,960.35
2022,05,23,08,33,960.35
2022,05,23,08,34,960.35
2022,05,23,08,35,960.35
2022,05,23,08,36,903.45
2022,05,23,08,37,903.45
2022,05,23,08,38,903.45
2022,05,23,08,39,903.45
2022,05,23,08,40,903.45
2022,05,23,08,41,903.45
2022,05,23,08,42,903.45
2022,05,23,08,43,903.45
2022,05,23,08,44,903.45
2022,05,23,08,45,903.45
2022,05,23,08,46,903.45
2022,05,23,08,47,903.45
2022,05,23,08,48,903.45
2022,05,23,08,49,903.45
2022,05,23,08,50,903.45
2022,05,23,08,51,903.45
2022,05,23,15,39,926.62
2022,05,23,15,40,926.62
2022,05,23,15,41,926.62
2022,05,23,15,42,926.62
2022,05,23,15,43,926.62
2022,05,23,15,44,926.62
2022,05,23,15,45,926.62
2022,05,23,15,46,926.62
2022,05,23,15,47,926.62
2022,05,23,15,48,926.62
2022,05,23,15,49,987.18
2022,05,23,15,50,990.55
2022,05,23,15,51,990.55
2022,05,23,15,52,990.55
2022,05,23,15,53,990.55
2022,05,23,15,54,990.55
2022,05,23,15,55,990.55
2022,05,23,15,56,990.55
2022,05,23,15,57,990.55
2022,05,23,15,58,990.55
2022,05,23,15,59,990.55
2022,05,23,16,00,990.55
2022,05,23,16,01,1050.48
2022,05,23,16,02,1056.79
2022,05,23,16,03,1056.79
2022,05,23,16,04,1056.79
2022,05,23,16,05,1056.79
2022,05,23,16,06,1056.79
2022,05,23,16,07,1056.79
2022,05,23,16,08,1056.79
2022,05,23,16,09,1056.79
2022,05,23,16,10,1056.79
2022,05,23,16,11,1056.79
2022,05,23,16,12,1056.79
2022,05,23,16,13,1056.79
2022,05,23,16,14,1056.79
2022,05,23,16,15,1056.79
2022,05,23,16,16,1056.79
2022,05,23,16,17,1056.79
2022,05,23,16,18,1056.79
2022,05,23,16,19,1056.79
2022,05,23,16,20,1056.79
2022,05,23,16,21,1056.79
2022,05,23,16,22,1056.79
2022,05,23,16,23,1056.79
2022,05,23,16,24,1056.79
2022,05,23,16,25,1056.79
2022,05,23,16,26,1056.79
2022,05,23,16,27,1056.79
2022,05,23,16,28,1056.79
2022,05,23,16,29,1056.79
2022,05,23,16,30,1056.79
2022,05,23,16,31,1056.79
2022,05,23,16,32,1056.79
2022,05,23,16,33,1056.79
2022,05,23,16,34,1056.79
2022,05,23,16,35,1056.79
2022,05,23,16,36,1056.79
2022,05,23,16,37,1056.79
2022,05,23,16,38,1056.79
2022,05,23,16,39,1056.79
2022,05,23,16,40,1056.79
2022,05,23,16,41,1056.79
2022,05,23,16,42,1056.79
2022,05,23,16,43,1056.79
2022,05,23,16,44,1056.79
2022,05,23,16,45,1056.79
2022,05,23,16,46,1056.79
2022,05,23,16,47,1056.79
2022,05,23,16,48,1056.79
2022,05,23,16,49,1056.79
2022,05,23,16,50,1056.79
2022,05,23,16,51,1056.79
2022,05,23,16,52,1056.79
2022,05,23,16,53,1056.79
2022,05,23,16,54,1056.79
2022,05,23,16,55,1056.79
2022,05,23,16,56,1056.79
2022,05,23,16,57,1056.79
2022,05,23,16,58,1056.79
2022,05,23,16,59,1056.79
2022,05,23,17,00,1056.79
2022,05,23,17,01,1056.79
2022,05,23,17,02,1056.79
2022,05,23,17,03,1056.79
2022,05,23,17,04,1056.79
2022,05,23,23,39,946.09
2022,05,23,23,40,946.09
2022,05,23,23,41,946.09
2022,05,23,23,42,946.09
2022,05,23,23,43,946.09
2022,05,23,23,44,946.09
2022,05,23,23,45,946.09
2022,05,23,23,46,946.09
2022,05,23,23,47,946.09
2022,05,23,23,48,946.09
2022,05,23,23,49,946.09
2022,05,23,23,50,946.09
2022,05,23,23,51,946.09
2022,05,23,23,52,946.09
2022,05,23,23,53,946.09
2022,05,23,23,54,946.09
2022,05,23,23,55,946.09
2022,05,23,23,56,946.09
2022,05,23,23,57,946.09
2022,05,23,23,58,946.09
2022,05,23,23,59,946.09
